Flag for Germany Weather past 2 weeks in Dinslaken, North Rhine-Westphalia, Germany

Now
37 °F

Clear.


Feels Like: 32 °F
Forecast: 36 / 44 °F
Wind: 6 mph from Southwest

Location: Essen

Current Time: Mar 3, 2015 at 2:11:56 AM

Latest Report: Mar 3, 2015 at 1:00 AM


Visibility: 22 mi

Pressure: 30.01 "Hg

Humidity: 79%

Dew point: 31 °F

Location of DinslakenLocation

Historic Weather in Dinslaken — Graph

°F

Dinslaken temperature yesterday

Maximum temperature yesterday: 47 °F (at 2:00 PM)
Minimum temperature yesterday: 37 °F (at 11:00 PM)
Average temperature yesterday: 41 °F

Past Weeks' High & Low Weather Summary

 TemperatureHumidityPressure
High50 °F (Mar 1, 2:00 PM)100% (Feb 17, 7:00 AM)30.77 "Hg (Feb 17, 7:00 AM)
Low31 °F (Feb 28, 5:00 AM)50% (Feb 28, 5:00 PM)29.35 "Hg (Feb 21, 4:00 AM)
Average38 °F86%29.94 "Hg
* Reported Feb 16 1:00 AM — Mar 3 1:00 AM, Dinslaken, Weather by CustomWeather, © 2015

Note: Actual official high and low records may vary slightly from our data, if they occured in-between our weather recording intervals... More about our weather records

Advertising

Dinslaken weather history for previous 24 hours

 ConditionsComfort  
Time TempWeatherWind HumidityBarometerVisibility
1:00 AM
Tue, Mar 3
37 °FClear.6 mph79%30.01 "Hg22 mi
12:00 AM37 °FPassing clouds.6 mph74%29.99 "Hg28 mi
11:00 PM
Mon, Mar 2
37 °FClear.5 mph76%29.96 "Hg28 mi
10:00 PM38 °FPassing clouds.5 mph73%29.93 "Hg37 mi
9:00 PM38 °FLow clouds.7 mph71%29.88 "Hg43 mi
8:00 PM38 °FClear.6 mph77%29.85 "Hg28 mi
7:00 PM38 °FLow clouds.6 mph85%29.82 "Hg22 mi
6:00 PM37 °FOvercast.7 mph91%29.80 "Hg19 mi
5:00 PM37 °FDrizzle. Low clouds.8 mph91%29.75 "Hg22 mi
4:00 PM40 °FLight rain. Low clouds.7 mph81%29.72 "Hg16 mi
3:00 PM46 °FOvercast.7 mph55%29.68 "Hg40 mi
2:00 PM47 °FOvercast.8 mph54%29.69 "Hg31 mi
1:00 PM45 °FPartly sunny.8 mph56%29.69 "Hg31 mi
12:00 PM44 °FScattered clouds.8 mph58%29.69 "HgN/A
11:00 AM43 °FPassing clouds.8 mph63%29.68 "Hg22 mi
10:00 AM42 °FSunny.7 mph69%29.66 "Hg16 mi
9:00 AM40 °FSunny.6 mph71%29.64 "Hg19 mi
8:00 AM38 °FSunny.6 mph78%29.62 "Hg22 mi
7:00 AM39 °FPassing clouds.6 mph77%29.59 "Hg25 mi
6:00 AM39 °FPassing clouds.3 mph78%29.58 "Hg25 mi
5:00 AM40 °FPassing clouds.6 mph74%29.55 "Hg25 mi
4:00 AM42 °FPassing clouds.7 mph73%29.50 "Hg31 mi
3:00 AM44 °FOvercast.8 mph72%29.47 "Hg31 mi
2:00 AM45 °FDrizzle. Low clouds.8 mph85%29.44 "Hg25 mi
Weather by CustomWeather, © 2015

See weather overviewHow to use our weather pages